{"data":{"norad_id":59196,"intl_designator":"2024-045U","name":"STARLINK-31558","alt_names":[],"object_type":"PAYLOAD","status":"ACTIVE","operator":null,"country":"US","launch_date":"2024-03-10","launch_site_code":"AFETR","launch_vehicle":null,"mission":null,"orbit_class":"UNKNOWN","rcs_meters":null,"size_class":null,"mass_kg":null,"dimensions":null,"purposes":["comms"],"wikipedia_slug":null,"has_3d_model":false,"image_url":null,"decayed_at":null,"tle_current":{"epoch":"2026-05-25T01:12:10.819872Z","epoch_age_seconds":73907,"freshness":"FRESH","line1":"1 59196U 24045U   26145.05012523  .00000922  00000+0  43010-4 0  9995","line2":"2 59196  43.0050  20.9615 0001607 252.6551 107.4125 15.27588788124856","mean_motion":15.27588788,"eccentricity":0.0001607,"inclination_deg":43.005,"raan_deg":20.9615,"arg_perigee_deg":252.6551,"mean_anomaly_deg":107.4125,"bstar":4.301e-5,"rev_number":12485,"period_min":94.266206410517,"perigee_km":481.92019335541,"apogee_km":484.12537010926,"semimajor_km":6861.1597817323,"source":"CELESTRAK","updated_at":"2026-05-25T13:38:18.862613Z"}}}